This demonstration page uses our WeatherBlox Daily Observations layout. Learn more.

38.88101, -77.10428

Hourly Observations for April 19, 2018

Temp ( °F °C ) Dew Point ( °F °C ) Humidity (%) Winds ( mph kmh ) Pressure ( in mb ) Visibility ( mi km ) Precip ( " mm )
12:00 am 00:00 Mostly Clear 51 10.6 39 3.9 64 64 Calm 29.68 1005 10 16.0934 0 0
12:52 am 00:52 Mostly Clear 52 11.1 41 5 66 66 ENE 3 6 29.67 1005 10 16.0934 0 0
1:52 am 01:52 Partly Cloudy 50 10 41 5 71 71 ENE 5 7 29.64 1004 10 16.0934 0 0
2:52 am 02:52 Mostly Cloudy 50 10 41 5 71 71 ENE 3 6 29.62 1003 10 16.0934 0 0
3:52 am 03:52 Cloudy 50 10 42 5.6 74 74 N 12 19 29.65 1004 10 16.0934 0 0
4:52 am 04:52 Cloudy 51 10.6 41 5 69 69 N 12 19 29.69 1005 10 16.0934 0 0
5:49 am 05:49 Partly Cloudy 52 11 39 4 62 62 NNE 10 17 29.65 1004 10 16.0934 0 0
5:52 am 05:52 Partly Cloudy 52 11.1 39 3.9 61 61 NNE 10 17 29.65 1004 10 16.0934 0 0
6:21 am 06:21 Mostly Cloudy 52 11.1 39 3.9 61 61 E 7 11 29.65 1004 10 16.0934 0 0
6:52 am 06:52 Mostly Cloudy 52 11.1 39 3.9 61 61 NNW 10 17 29.67 1005 10 16.0934 0 0
7:09 am 07:09 Cloudy with Light Rain 53 11.7 39 3.9 59 59 NW 10 17 29.68 1005 10 16.0934 0 0.0254
7:52 am 07:52 Cloudy with Light Rain 53 11.7 40 4.4 61 61 W 5 7 29.72 1006 10 16.0934 0 0.0254
8:52 am 08:52 Cloudy with Light Rain 51 10.6 43 6.1 74 74 W 9 15 29.74 1007 10 16.0934 0.01 0.254
9:52 am 09:52 Cloudy 54 12.2 45 7.2 72 72 W 3 6 29.73 1007 10 16.0934 0.02 0.508
10:52 am 10:52 Cloudy 54 12.2 47 8.3 77 77 S 8 13 29.74 1007 10 16.0934 0 0
11:48 am 11:48 Cloudy with Light Rain 55 13 39 4 55 55 WNW 26 43 29.77 1008 10 16.0934 0 0.0254
11:52 am 11:52 Cloudy with Light Rain 54 12.2 39 3.9 57 57 NW 29 46 29.78 1009 10 16.0934 0 0.0254
12:52 pm 12:52 Cloudy with Light Rain 53 11.7 37 2.8 55 55 WNW 15 24 29.81 1010 10 16.0934 0 0.0254
1:52 pm 13:52 Mostly Cloudy 56 13.3 37 2.8 49 49 NW 23 37 29.84 1011 10 16.0934 0 0.0254
2:52 pm 14:52 Mostly Cloudy 55 12.8 31 -0.6 40 40 WNW 24 39 29.88 1012 10 16.0934 0 0
3:52 pm 15:52 Mostly Cloudy 56 13.3 29 -1.7 36 36 WNW 25 41 29.93 1013 10 16.0934 0 0
4:52 pm 16:52 Mostly Cloudy 54 12.2 27 -2.8 35 35 NW 18 30 29.97 1015 10 16.0934 0 0
5:52 pm 17:52 Partly Cloudy 51 10.6 26 -3.3 38 38 WNW 24 39 30.01 1016 10 16.0934 0 0
6:52 pm 18:52 Mostly Cloudy 48 8.9 25 -3.9 41 41 NNW 30 48 30.06 1018 10 16.0934 0 0
7:52 pm 19:52 Mostly Cloudy 47 8.3 26 -3.3 44 44 NNW 20 31 30.1 1019 10 16.0934 0 0
8:52 pm 20:52 Mostly Cloudy 47 8.3 26 -3.3 44 44 NW 15 24 30.13 1020 10 16.0934 0 0
9:52 pm 21:52 Mostly Clear 46 7.8 25 -3.9 44 44 NW 15 24 30.16 1021 10 16.0934 0 0
10:52 pm 22:52 Mostly Clear 45 7.2 24 -4.4 44 44 W 5 7 30.16 1021 10 16.0934 0 0
11:52 pm 23:52 Clear 44 6.7 23 -5 43 43 NW 9 15 30.16 1022 10 16.0934 0 0

Powered by AerisWeather